Location: Newark
(44.3248°N, 23.7839°E)
Time: 19:35:47
(UTC+00:00)

X-37B - Pass Details

Date: 12 June 2023
Orbit: 277 x 277 km, 45.0° (Epoch: 01 November)

Event Time Altitude Azimuth Distance (km) Brightness Sun altitude
Exits shadow 00:44:41 19° 133° (SE) 740 1.9 -15.3°
Drops below altitude 10° 00:46:07 10° 100° (E) 1,100 3.2 -15.2°
Sets 00:48:17 0° 82° (E) 1,916 4.8 -15.0°
